Theta_e
321 317 315 312 300 297 293 295 298 298 299 301 301 301 302 303 302 299 313 325 327 332 337 343 348 350 351 350 349 348 347 349 348 347 345 343 340 339 338 339 339 340 343 342 340 336 335 335 335
316 316 312 304 295 290 290 296 298 299 301 301 302 302 302 302 306 310 317 323 329 333 337 343 345 349 350 350 350 349 349 349 348 347 343 340 338 339 338 337 337 338 337 336 335 332 331 330 330
314 311 306 298 291 289 290 296 298 300 300 302 302 303 303 304 307 311 317 325 330 333 336 338 344 348 350 349 349 349 349 350 348 345 342 339 338 337 336 336 336 336 335 333 329 326 325 325 324
309 306 300 297 293 295 295 299 298 299 300 300 302 300 302 306 309 311 317 325 330 332 333 335 344 348 348 348 349 350 349 348 344 342 340 339 336 334 333 332 335 334 331 328 324 322 322 322 321
304 300 293 292 291 295 297 299 299 298 299 300 301 300 300 306 307 311 319 325 329 329 331 335 341 345 345 346 347 346 345 344 342 338 338 336 334 331 329 329 330 327 325 322 321 321 321 319 319
300 299 292 289 290 294 296 298 299 298 299 299 299 300 302 304 306 310 320 323 326 328 328 332 334 339 341 342 343 342 342 339 338 337 336 334 331 328 326 326 325 323 322 322 322 321 319 318 317
298 295 291 291 291 294 297 298 297 298 299 299 301 300 303 302 305 312 318 320 323 324 325 328 333 335 333 337 339 339 339 336 337 336 334 331 328 326 324 323 323 323 322 322 320 319 318 316 315
299 297 292 291 291 293 297 297 298 298 299 300 301 299 301 305 305 311 314 316 318 320 322 324 327 330 331 332 331 332 334 333 335 333 330 327 326 325 324 323 323 322 321 319 317 317 315 313 311
300 292 289 291 290 294 297 296 298 299 299 299 300 301 302 300 306 309 311 311 312 314 317 320 323 325 326 326 327 328 329 331 330 327 324 320 318 318 318 318 323 321 318 316 314 313 311 309 307
297 290 291 293 293 295 296 296 298 298 297 297 298 300 299 300 304 306 308 310 310 312 313 315 318 320 320 320 324 326 324 325 323 320 317 312 311 312 311 315 319 319 316 313 311 308 303 297 297
296 293 294 294 294 296 297 295 298 296 296 297 298 300 299 297 301 304 307 310 312 313 313 312 314 316 316 318 318 319 317 318 315 313 309 308 307 308 309 310 308 307 305 304 302 298 296 296 296
294 296 295 298 297 296 296 297 295 296 302 302 301 301 299 297 298 301 304 306 308 308 311 311 311 312 313 314 314 314 314 312 310 309 306 304 304 305 304 304 302 301 299 297 296 295 295 295 294
294 295 297 297 297 297 297 297 296 295 300 301 298 298 298 298 299 299 303 306 306 305 308 309 310 311 311 310 312 311 312 310 308 306 303 301 301 302 301 300 297 296 294 295 294 294 293 294 293
294 295 295 295 296 296 296 298 295 297 300 298 297 298 297 297 299 298 297 300 301 305 306 308 308 310 309 310 309 310 309 308 305 304 302 299 300 300 299 296 294 293 293 293 293 293 292 293 293
294 292 292 292 294 294 294 293 291 299 296 297 297 296 295 297 297 298 301 299 300 302 304 305 306 308 308 308 307 309 307 304 304 303 300 298 298 297 297 295 293 292 292 292 292 291 291 291 291
289 289 286 290 292 292 294 288 295 295 293 295 295 295 295 297 297 299 300 300 301 300 299 303 305 305 307 307 306 307 306 304 304 302 300 298 297 296 294 294 293 292 291 292 291 290 290 290 290
286 283 283 287 292 291 291 289 293 294 293 295 296 296 297 299 299 299 299 299 300 300 299 298 302 304 305 306 305 305 304 304 303 301 299 298 296 295 294 294 293 291 290 290 290 289 290 289 289
283 281 283 284 289 288 288 289 293 295 293 294 296 297 298 298 300 302 301 299 299 299 300 298 298 302 303 304 303 301 299 301 300 299 298 297 296 294 294 293 292 290 290 289 289 289 288 289 289
284 283 282 285 289 287 289 289 291 293 293 294 295 296 296 297 300 301 299 299 298 297 297 297 295 298 300 300 297 296 296 297 297 298 297 296 296 294 293 292 291 290 289 289 289 288 288 287 287
286 285 284 288 290 286 286 288 292 293 294 295 296 296 296 296 297 297 297 297 297 297 296 297 296 296 297 299 299 299 299 298 297 297 296 296 295 294 293 292 291 290 289 288 288 288 286 287 286
284 283 285 284 286 286 284 285 287 290 291 294 295 296 296 295 295 296 296 295 296 295 295 296 296 295 296 298 297 291 293 292 293 293 293 293 294 293 293 291 291 289 289 288 288 288 288 286 285
284 287 287 285 283 280 285 279 286 292 293 293 293 293 292 293 294 295 294 294 294 296 296 295 295 295 295 296 295 294 295 293 294 295 294 293 293 292 292 291 290 289 289 288 287 287 288 287 285
286 286 285 284 282 281 281 279 283 286 287 290 293 293 293 294 294 293 294 294 294 294 294 294 294 294 294 295 296 294 295 295 292 294 293 292 291 292 290 290 289 289 288 288 287 286 286 287 287
287 285 284 281 281 276 281 281 281 285 287 288 292 292 292 292 292 293 294 294 293 293 292 292 292 292 293 293 294 293 294 293 290 290 291 290 290 289 289 289 288 289 288 287 287 287 287 286 286
287 283 278 276 275 278 281 279 284 288 289 290 291 292 291 291 291 292 293 293 293 292 291 290 290 290 291 292 292 292 293 293 291 290 291 289 289 289 288 288 288 287 287 287 287 286 286 286 285
284 285 280 275 273 282 279 279 284 289 291 289 290 290 290 291 291 291 291 290 290 290 290 289 288 288 289 290 290 291 292 292 291 290 291 290 290 290 290 288 288 287 286 286 286 286 285 286 286
283 282 287 281 276 274 281 285 289 288 289 289 288 290 288 288 288 288 288 288 288 288 288 288 287 288 288 288 288 289 289 290 290 289 290 290 290 290 289 288 287 286 285 285 285 285 284 284 285
286 287 281 281 275 274 280 280 283 288 290 287 285 286 287 287 287 287 287 287 288 288 288 289 289 288 288 288 288 288 288 289 289 287 287 288 289 289 288 287 287 286 285 285 284 285 284 283 283
283 282 283 283 284 278 277 281 289 286 282 282 284 285 284 284 284 285 285 286 287 288 288 287 287 288 288 288 288 287 287 287 287 286 287 287 287 287 286 286 286 285 284 284 283 284 283 282 282
287 285 285 282 280 281 282 282 294 285 284 282 281 282 283 283 283 284 284 285 285 286 287 287 287 287 287 287 287 287 286 286 286 286 286 286 286 286 286 285 285 284 284 284 283 283 282 282 281
Wind_Speed
3 3 2 5 4 4 3 5 2 3 2 2 7 5 5 2 5 4 1 10 6 13 11 10 12 13 14 14 13 12 12 13 12 13 12 10 9 6 4 5 6 8 9 11 11 7 6 7 9
2 1 5 3 4 2 5 3 4 4 1 3 2 2 1 6 3 4 3 12 8 13 11 10 13 13 12 14 13 12 13 14 14 14 11 8 9 8 8 6 5 6 6 6 6 6 6 7 8
2 4 4 4 3 4 4 5 3 2 2 2 2 2 2 4 2 3 2 13 10 11 11 9 13 15 15 14 13 12 14 14 14 13 11 8 9 9 8 7 7 7 6 7 7 5 6 7 8
3 4 4 4 4 6 6 2 3 5 1 2 2 5 4 4 3 1 4 10 11 10 8 9 12 13 15 15 15 16 15 14 11 9 10 9 8 8 8 7 8 9 8 7 6 7 8 8 8
4 3 3 2 5 6 5 5 3 2 2 2 2 3 5 1 2 2 6 9 12 9 8 7 9 11 11 11 11 11 11 10 9 8 9 9 9 9 8 8 9 8 8 8 8 9 9 8 9
4 3 3 2 4 5 6 5 2 3 2 1 2 2 6 2 3 3 6 10 8 10 6 5 7 8 13 10 11 10 11 12 12 12 11 12 11 10 10 10 9 9 9 9 9 9 9 10 10
6 4 4 3 4 6 4 2 3 3 2 5 3 2 5 3 4 5 6 7 8 9 8 6 6 8 9 10 10 10 12 14 11 12 13 12 11 11 11 11 11 11 11 10 10 10 10 10 10
5 4 3 4 3 7 2 2 2 5 5 2 4 5 6 1 3 4 4 6 6 7 9 10 8 7 8 6 9 9 11 15 12 12 12 10 9 10 10 9 11 11 11 10 10 10 10 10 11
3 4 2 5 6 5 2 2 4 1 2 3 7 5 4 3 5 5 3 3 5 7 9 9 9 8 8 7 8 11 10 11 11 10 11 9 5 7 6 7 10 12 11 10 9 9 10 11 11
4 4 9 6 6 5 3 5 3 2 4 6 6 7 4 5 5 8 9 12 11 12 12 9 9 9 8 6 7 8 6 6 6 6 7 6 6 6 6 6 9 11 11 10 10 9 8 6 3
5 7 6 6 8 3 4 3 4 4 7 11 9 8 6 6 9 11 12 12 17 13 9 12 10 9 10 8 6 4 3 5 5 9 8 7 6 5 4 3 4 4 7 4 5 5 3 4 3
3 9 6 4 4 2 5 3 4 8 18 9 12 6 4 8 13 14 15 16 14 12 13 12 12 11 10 7 7 7 7 6 6 8 9 7 5 6 6 5 5 5 3 5 4 3 4 4 5
4 5 5 6 5 8 4 14 6 12 20 9 7 8 12 10 14 11 14 11 9 12 13 14 14 14 11 10 8 8 9 8 9 9 9 8 8 8 7 6 6 5 5 5 5 4 4 4 4
3 5 7 6 7 7 6 19 6 13 13 13 9 13 12 10 15 6 11 17 15 14 15 15 17 16 14 14 12 10 8 9 9 8 10 11 8 8 8 7 6 6 5 5 5 4 4 3 3
1 7 8 7 7 9 6 10 13 20 3 15 11 10 10 13 8 17 16 15 15 17 14 17 17 16 17 18 14 11 10 9 10 9 12 12 11 11 10 8 7 7 6 7 5 5 3 3 3
3 1 5 2 6 2 7 12 20 5 6 13 13 10 10 11 11 14 14 14 12 12 17 15 14 18 18 18 14 12 11 11 10 10 10 13 13 13 11 9 9 8 7 6 6 5 4 3 3
2 6 7 10 9 5 7 10 13 5 3 11 13 12 13 18 15 12 10 11 12 15 14 15 17 20 21 18 13 12 12 11 10 10 10 14 13 13 10 9 8 10 7 7 7 4 3 3 3
9 5 6 6 5 6 6 16 14 17 8 19 19 23 19 17 24 16 8 8 11 13 15 15 14 17 17 11 10 8 8 10 10 11 11 15 13 15 12 9 10 9 8 7 7 6 4 3 4
2 6 7 7 8 5 19 18 18 17 16 23 23 19 17 14 19 13 6 9 8 8 11 15 14 16 12 12 11 9 13 12 11 12 15 15 13 14 14 9 10 10 10 9 9 4 5 3 4
8 12 14 11 13 5 11 20 21 24 25 24 21 21 12 7 11 6 7 6 7 7 10 10 14 15 16 13 12 7 10 10 10 9 10 13 14 15 12 11 10 11 9 11 11 7 5 3 6
5 7 12 12 7 5 8 8 4 6 7 11 18 13 12 9 11 10 9 7 7 8 8 10 11 14 15 15 9 3 4 3 8 9 9 12 15 14 15 15 12 12 10 10 11 10 8 5 4
9 10 13 6 4 5 3 11 3 18 18 10 12 7 5 8 4 6 7 5 6 8 6 7 9 11 11 14 13 17 14 12 9 12 10 10 14 15 15 14 13 13 10 11 11 9 7 6 6
11 1 3 2 3 3 3 5 8 1 5 5 7 8 6 6 3 8 10 8 7 7 6 5 5 6 9 11 12 11 13 6 2 6 11 13 13 14 15 14 14 14 10 11 13 13 11 6 5
2 1 3 4 1 5 13 10 5 3 4 1 5 6 9 5 7 8 6 7 9 7 8 6 2 2 4 8 10 11 12 7 6 8 10 9 8 10 14 15 15 15 14 14 12 11 12 11 6
3 5 5 5 2 8 4 3 6 7 6 4 6 8 5 5 11 12 17 18 20 19 17 10 8 5 2 4 7 8 11 9 9 9 9 11 9 9 14 16 15 13 13 12 12 12 12 12 11
7 10 7 7 4 14 2 9 6 9 5 4 7 8 6 15 12 16 19 18 18 19 18 15 12 8 6 4 5 3 5 5 5 8 7 8 9 11 13 15 15 15 15 14 13 10 10 11 10
3 5 2 1 2 1 7 12 8 6 7 5 12 18 20 20 19 19 17 17 17 18 18 18 16 12 8 8 4 4 4 5 6 5 6 7 9 10 14 16 16 16 15 16 16 12 13 12 11
7 3 1 2 2 7 13 7 7 9 11 18 20 18 16 14 15 15 15 16 15 14 13 14 13 12 12 11 7 6 5 6 7 6 10 11 10 10 11 14 16 16 16 15 15 12 12 13 10
2 3 3 3 6 5 6 12 8 11 11 8 8 10 11 13 14 13 13 13 15 14 14 14 15 15 16 14 13 11 11 8 7 8 11 12 10 12 13 14 15 17 18 17 17 16 14 16 14
8 8 7 12 16 12 19 21 12 14 12 8 8 8 7 7 9 9 10 11 13 14 15 16 16 13 13 13 13 12 11 10 9 10 11 9 11 11 13 13 14 16 16 17 19 20 17 19 17
Wind_Direction
24 37 62 40 49 56 272 264 293 259 250 161 126 154 199 211 172 222 114 191 181 161 175 180 179 177 177 170 168 167 168 163 153 140 136 146 120 123 122 100 78 78 87 87 78 87 83 75 69
20 54 46 76 87 42 271 263 249 241 1 135 170 147 242 258 241 270 176 186 191 167 171 176 175 180 182 170 173 177 186 167 162 156 134 152 146 153 152 153 130 114 104 95 91 89 90 83 82
110 39 79 86 106 193 230 219 246 284 161 181 244 246 251 242 251 250 214 164 173 173 171 175 176 185 179 176 182 186 182 175 160 147 143 169 166 161 159 154 154 154 149 117 120 106 96 85 75
59 16 48 84 238 253 227 239 236 304 152 225 198 269 281 234 201 221 158 163 167 171 174 179 161 176 182 188 184 188 188 161 142 146 158 173 174 169 159 163 141 132 133 124 117 99 86 76 75
40 57 58 26 255 262 249 257 206 246 281 205 188 270 260 233 2 112 157 164 171 170 177 182 157 168 151 155 165 163 170 143 146 167 176 178 177 170 163 158 141 139 133 125 118 108 94 89 77
51 91 58 260 257 261 272 242 206 208 232 205 186 245 251 172 191 192 167 170 169 173 181 187 181 201 166 170 172 168 162 190 187 174 176 187 177 172 166 159 153 146 138 131 118 113 104 90 79
116 96 206 245 262 294 243 154 196 207 216 240 174 208 261 275 191 161 169 167 169 174 177 191 207 225 192 181 187 189 181 203 190 179 184 184 177 175 170 161 159 153 143 135 131 122 109 98 92
106 97 158 233 231 271 263 222 199 172 249 89 186 230 251 207 116 119 141 168 185 191 192 191 196 210 201 202 212 198 188 204 172 181 174 166 167 172 167 161 163 155 144 140 132 124 112 104 95
129 67 215 243 170 243 207 256 189 172 240 212 206 212 232 113 125 124 141 211 211 219 209 199 196 193 180 191 209 208 203 169 170 168 157 141 151 151 143 160 167 155 150 141 131 118 104 92 88
107 142 222 214 198 222 237 198 249 232 236 244 274 253 161 148 176 183 191 204 210 214 212 206 199 191 179 183 189 187 172 162 160 153 148 145 151 156 157 176 156 151 147 140 130 118 101 92 91
173 205 215 243 227 231 245 243 212 193 262 229 211 242 187 186 205 212 216 212 212 209 203 202 199 194 187 188 179 181 162 164 162 163 158 156 157 167 161 143 116 110 100 103 102 110 109 113 102
214 241 204 245 214 200 239 282 225 199 254 239 216 226 176 206 215 213 220 221 213 195 205 197 196 196 196 184 187 179 177 175 173 175 166 163 169 177 167 159 145 141 144 140 145 148 134 116 105
230 255 229 239 257 257 288 257 221 237 253 263 239 234 240 230 236 219 225 233 210 216 208 202 192 198 195 196 190 188 188 183 178 175 178 170 176 180 171 170 164 163 162 166 161 152 144 132 117
224 261 268 277 243 247 198 272 136 245 260 277 232 247 247 232 245 226 216 230 214 219 213 199 200 197 188 197 194 196 192 187 181 181 185 181 178 176 180 177 177 175 177 165 162 159 153 137 130
271 300 307 218 240 224 161 286 234 252 228 275 265 264 257 237 224 228 237 225 218 218 208 204 201 198 198 199 196 193 192 186 190 191 185 184 182 182 180 177 180 181 175 163 155 143 140 145 124
278 150 302 259 149 248 162 260 273 244 193 261 280 283 279 267 239 239 234 224 211 211 208 200 196 198 202 204 197 195 192 191 193 190 190 189 187 183 179 179 184 175 171 168 160 154 159 161 158
308 244 226 313 206 137 186 261 263 282 240 279 284 276 276 280 267 252 236 223 217 216 211 205 198 198 200 202 201 202 196 198 195 193 191 188 189 184 182 186 178 171 170 172 164 163 178 174 156
222 229 242 243 280 197 214 252 274 287 272 273 268 271 269 272 275 284 260 234 220 214 213 207 199 205 200 194 193 195 196 202 194 197 197 188 189 184 182 179 171 170 171 173 176 171 167 163 154
170 227 248 258 256 299 277 274 275 272 274 271 268 271 264 262 273 278 273 253 242 224 209 205 195 197 182 188 184 199 208 207 204 201 195 189 192 188 186 182 171 173 180 181 177 151 163 164 174
254 269 272 275 261 193 264 281 277 261 258 265 275 279 280 271 284 334 289 263 247 247 224 211 206 195 193 193 195 202 196 215 211 205 202 194 186 184 184 180 182 184 177 175 177 170 157 148 193
226 227 253 257 321 247 314 271 229 269 272 262 259 266 272 273 297 312 314 307 287 268 231 225 216 203 197 196 183 121 118 149 187 198 194 194 187 184 183 182 180 179 184 189 187 186 175 157 190
268 235 257 276 356 249 37 291 126 285 271 292 291 267 311 297 323 303 299 321 290 286 292 236 201 206 204 192 190 200 204 199 210 199 193 194 193 188 188 184 180 183 184 184 190 185 183 152 168
230 249 243 208 214 336 280 269 275 225 271 282 290 16 33 33 346 322 340 325 315 329 317 275 235 205 190 205 210 202 214 214 146 187 187 186 183 190 186 188 184 184 187 192 183 180 192 193 166
121 71 49 51 89 272 211 194 305 205 192 121 348 49 37 34 20 351 312 312 345 353 356 347 332 239 180 182 207 211 219 201 174 172 181 194 191 187 191 188 187 188 189 189 190 190 193 191 189
122 73 323 317 0 243 358 260 257 287 255 4 358 323 34 3 13 347 8 7 7 7 6 3 11 352 258 214 210 215 221 214 211 193 188 179 187 196 201 192 190 191 191 189 185 187 192 195 196
179 168 173 228 243 292 118 247 255 230 356 102 11 31 13 15 10 13 18 16 13 12 13 6 7 343 320 277 267 237 225 244 228 210 203 201 201 203 196 198 197 195 188 184 187 193 196 197 206
165 190 198 128 118 296 245 278 319 349 96 86 36 29 24 26 25 20 18 20 16 15 15 14 8 354 334 302 266 246 252 233 229 223 216 209 205 200 192 193 196 193 189 187 185 194 194 191 196
179 179 85 22 222 231 271 272 223 319 346 31 28 17 9 19 23 19 13 11 10 13 9 10 20 21 360 351 323 294 261 237 231 203 211 210 208 201 195 194 196 194 193 190 190 196 195 194 193
150 226 223 336 165 240 252 262 131 88 72 53 30 31 23 18 14 12 12 7 2 2 3 9 10 7 9 4 354 333 299 268 245 228 224 218 210 198 194 198 200 198 193 190 190 198 192 197 196
190 212 220 242 259 229 240 246 314 85 84 75 49 33 28 26 9 6 8 4 6 2 357 357 358 1 0 355 350 349 336 302 270 252 241 223 216 204 204 200 202 201 203 199 198 193 191 194 196